Dewpoint
53 53 54 53 51 51 51 51 51 51 52 52 52 53 53 51 50 50 50 53 56 54 54 52 51 51 50 45 43 43 51 51 48 49 47 46 44 42 38 38 39 38 37 39 39 38 37
52 53 54 52 52 51 51 51 51 52 51 52 52 51 52 53 51 50 49 51 54 57 53 51 52 52 47 35 40 46 46 46 45 47 45 46 45 45 42 42 40 40 41 40 41 40 39
52 53 52 52 51 50 51 51 51 51 51 51 51 51 51 52 52 51 49 53 53 54 52 51 52 49 46 38 42 42 42 43 44 46 44 46 47 43 43 39 41 41 39 39 39 40 40
51 52 52 52 51 49 50 50 50 51 51 51 51 51 51 51 52 50 49 53 53 54 53 51 51 48 40 45 43 43 39 38 45 47 46 48 48 46 45 43 41 38 36 32 35 39 40
51 51 52 51 50 49 50 50 50 49 48 48 48 49 50 50 50 49 50 53 53 54 53 51 48 45 39 45 37 36 35 37 45 47 47 47 46 43 44 40 35 35 31 32 35 38 38
52 52 52 51 49 49 50 50 49 49 50 50 50 48 49 49 48 48 50 51 52 51 50 49 47 39 39 33 38 39 38 41 41 44 45 45 42 37 39 37 29 31 32 33 33 36 38
53 53 52 52 49 49 50 50 49 49 49 50 50 49 49 49 49 48 49 44 43 40 44 38 38 37 36 36 40 39 40 40 42 40 36 40 36 32 34 37 37 36 35 33 33 39 38
54 54 53 51 49 50 50 49 49 49 48 50 47 49 48 47 48 47 48 41 40 41 35 41 40 40 38 37 35 39 41 37 38 35 37 37 33 35 37 36 36 34 34 30 35 38 36
55 55 52 52 49 50 49 48 49 49 48 49 49 48 47 49 49 46 46 45 48 45 36 37 40 39 34 36 35 38 39 39 35 33 32 29 31 33 32 30 31 30 30 31 29 30 32
54 55 52 51 49 49 49 48 48 48 48 48 49 49 48 47 43 45 45 49 49 45 33 33 34 36 37 39 35 39 41 39 36 31 32 30 33 30 28 27 31 28 33 31 29 29 25
54 52 52 50 48 48 49 49 46 48 49 49 49 49 48 48 40 43 45 48 47 41 16 34 35 39 38 36 35 36 41 39 34 32 29 19 28 28 29 29 31 29 32 31 31 30 27
55 52 51 50 48 48 48 48 48 48 48 50 49 49 48 46 44 47 48 48 41 26 17 30 33 35 33 33 32 36 36 39 35 32 29 28 30 29 30 30 32 31 32 30 30 29 26
54 52 51 49 47 48 48 47 47 47 48 49 49 50 46 45 41 47 47 41 25 16 26 29 31 33 33 29 30 31 30 27 26 19 20 25 25 27 29 28 30 31 27 21 17 17 26
53 51 51 49 47 48 48 48 48 49 48 50 50 48 48 48 49 48 45 36 21 28 28 32 31 30 27 28 28 29 26 25 29 27 22 19 16 25 28 28 27 29 29 25 16 16 25
53 52 51 48 47 48 48 48 48 48 49 50 49 45 45 47 48 46 38 27 29 28 32 30 29 26 26 26 27 26 27 28 29 29 24 22 21 27 28 29 31 29 26 33 30 32 20
53 52 51 48 47 48 48 49 47 48 50 50 42 41 42 46 47 42 33 32 32 33 34 32 23 24 24 24 24 21 26 28 31 32 31 24 19 25 27 29 28 29 30 23 24 13 18
53 51 51 48 47 48 48 48 48 47 48 48 40 37 42 45 44 36 27 29 33 34 34 28 26 24 23 22 22 24 25 28 28 31 28 26 22 20 28 26 24 24 24 26 25 25 14
54 51 50 47 46 47 48 48 48 47 47 45 41 32 42 44 34 32 27 32 36 33 33 29 28 26 24 23 23 25 24 25 28 31 23 27 24 17 25 27 24 24 22 25 17 17 23
54 52 50 47 46 47 48 48 48 48 48 42 39 36 42 40 28 28 31 32 34 32 31 29 27 28 24 21 20 25 26 28 28 27 26 27 19 7 10 13 19 22 22 25 24 20 21
54 53 50 46 45 47 47 48 48 49 49 41 36 31 35 37 35 31 30 29 31 33 30 30 26 25 23 21 23 23 25 27 27 26 32 30 21 11 7 12 20 20 21 22 21 13 15
54 53 50 46 44 46 47 47 48 49 49 40 35 34 36 29 32 33 31 30 28 25 27 28 27 24 21 16 17 19 22 24 23 27 27 22 11 20 20 22 22 22 20 19 15 21 14
54 54 51 46 43 44 46 47 48 48 47 37 31 32 33 31 33 32 31 28 28 28 25 24 25 24 22 20 20 18 21 22 20 24 23 26 15 16 14 23 25 21 20 19 19 22 24
54 54 52 48 44 44 45 46 48 48 44 37 38 37 35 32 31 30 30 30 27 27 26 25 24 25 21 21 21 24 26 26 24 22 21 22 17 15 14 22 18 8 22 19 27 27 27
54 54 53 49 45 45 45 45 47 48 45 40 40 37 33 29 31 30 32 31 28 25 24 25 24 22 24 25 23 25 25 25 24 25 25 21 18 20 13 13 -7 7 29 29 29 28 30
53 54 54 51 47 45 45 45 45 47 46 42 41 38 35 29 30 28 28 30 27 25 24 24 24 25 29 27 23 21 21 20 25 26 25 24 21 17 12 12 12 22 28 29 28 22 29
53 54 54 52 49 47 46 46 45 46 47 42 40 42 37 32 28 28 27 28 27 24 23 24 26 28 29 25 22 17 13 16 17 21 23 25 23 18 17 12 6 12 26 31 27 19 32
53 53 54 53 50 48 47 47 46 46 47 43 40 42 38 32 33 28 26 27 25 24 23 24 23 22 26 22 23 18 14 20 16 16 18 15 16 14 15 14 16 18 31 31 16 -3 34
53 53 54 53 50 48 47 48 47 47 48 43 38 42 38 34 33 31 30 27 26 24 22 24 21 24 22 21 21 20 15 18 18 16 19 16 15 15 17 14 2 30 31 21 21 32 35
53 53 53 53 50 48 48 48 47 47 48 46 39 44 44 38 34 33 31 31 29 29 28 26 23 25 25 24 22 21 23 16 16 8 20 16 17 16 17 15 16 31 26 31 33 33 34
Lifted_Index
13 12 12 12 11 10 10 9 9 8 8 8 7 7 6 6 6 7 7 5 3 2 3 3 4 4 4 4 4 5 4 4 5 5 5 6 6 6 6 4 3 3 2 2 2 2 2
13 13 12 12 11 10 9 9 8 8 8 7 7 6 6 5 6 6 6 5 4 3 3 3 4 4 4 4 4 5 5 5 5 5 5 6 6 6 5 4 4 3 3 3 2 2 2
13 13 13 12 11 10 9 8 8 7 7 6 6 5 5 5 5 5 6 5 4 3 3 3 4 4 4 4 5 5 6 6 6 6 6 6 6 6 5 5 4 4 3 3 3 2 2
14 14 13 12 10 9 9 8 7 6 5 5 4 4 4 4 4 5 5 4 3 3 3 3 4 4 4 5 6 6 7 7 6 6 6 6 6 6 5 5 4 4 3 3 3 2 2
14 14 13 11 10 9 8 6 5 4 3 3 2 2 2 3 3 4 4 3 3 3 3 3 4 4 4 5 6 7 7 7 6 6 6 6 6 6 5 5 4 4 3 3 2 2 2
14 13 12 11 10 8 7 5 3 2 1 1 1 0 1 1 2 3 4 4 3 3 3 4 4 4 5 6 7 7 7 7 7 7 6 6 6 6 5 5 4 4 3 3 3 2 2
13 13 12 11 9 8 6 4 1 -0 -0 -0 -0 -0 -0 0 1 2 3 4 4 4 4 4 5 5 6 7 7 7 8 8 8 7 7 6 6 6 5 5 4 4 4 3 3 2 2
13 13 12 11 9 7 5 3 1 -0 -0 -0 -0 -0 -0 0 1 2 3 4 4 4 4 4 5 5 6 7 7 7 8 8 8 8 7 7 7 6 6 5 4 4 4 3 3 3 2
13 13 12 11 9 7 5 3 1 0 0 0 -0 -0 0 0 1 2 3 3 4 4 4 4 4 5 7 7 8 8 8 8 8 8 8 7 7 7 6 5 5 4 3 3 3 3 2
13 13 12 11 9 7 4 3 2 2 1 1 0 0 1 1 2 3 3 4 4 4 4 4 4 6 7 8 8 8 8 8 8 8 8 8 8 7 7 6 5 4 3 3 3 2 2
13 13 12 11 9 7 5 4 4 3 2 2 1 1 2 3 4 4 4 5 5 4 3 4 5 6 7 8 8 9 9 8 9 9 9 9 8 7 6 5 4 3 3 3 3 2 2
13 13 13 12 10 7 5 5 5 5 4 3 3 3 3 4 5 5 5 5 5 3 3 4 6 7 8 8 9 9 9 9 9 8 9 9 8 6 5 4 3 2 2 2 2 1 1
13 14 13 13 11 8 6 6 6 6 5 5 4 4 4 5 5 5 5 5 4 4 4 5 6 7 8 9 9 9 9 9 9 8 7 8 7 6 4 2 2 1 1 1 1 0 1
13 14 14 13 12 9 7 6 6 6 6 5 5 5 5 5 6 6 5 5 4 5 6 6 7 8 8 9 9 9 9 9 9 8 7 6 6 6 4 3 2 1 1 1 0 0 0
14 14 14 14 13 10 8 7 7 7 6 6 6 6 6 6 6 6 6 5 5 6 7 7 7 8 8 8 9 9 9 9 10 9 8 6 7 7 6 4 3 2 1 1 0 0 0
13 14 14 14 14 12 10 9 8 8 8 7 7 7 7 7 7 6 6 6 7 8 8 8 8 8 8 8 8 8 9 10 11 10 9 9 8 8 7 5 4 3 2 1 1 1 0
13 14 14 14 14 13 12 11 10 10 10 9 8 8 8 8 8 7 7 8 9 9 9 9 9 8 8 8 8 8 9 10 12 11 11 10 9 8 8 7 5 4 3 2 1 1 1
13 14 14 14 15 14 13 13 12 12 11 11 10 9 9 9 9 8 9 10 10 10 10 10 10 10 9 9 8 8 9 11 12 12 11 11 9 7 7 8 6 5 3 2 2 2 2
13 13 14 14 15 15 15 14 14 13 12 11 11 11 11 11 10 9 10 10 11 11 11 11 10 11 11 9 8 8 10 12 13 13 12 11 8 6 6 7 7 6 4 3 3 2 2
12 13 14 14 15 16 15 15 14 14 13 12 11 12 12 12 11 11 11 11 11 11 11 11 11 11 10 9 9 9 10 12 13 14 13 12 9 6 6 7 8 7 6 5 4 3 3
12 13 13 14 15 16 16 16 15 15 14 13 12 12 12 12 12 12 12 11 11 11 11 11 11 11 10 9 9 9 9 11 12 13 13 12 9 7 7 8 9 8 7 7 6 5 4
12 12 13 14 15 16 16 16 16 15 15 14 13 12 12 12 13 13 13 12 12 12 12 12 11 11 10 10 10 10 10 11 12 12 12 11 9 8 8 9 9 8 8 8 8 8 7
11 12 12 13 14 15 16 16 16 16 16 14 13 13 12 12 12 13 13 13 13 13 13 13 12 12 12 12 13 13 13 13 12 12 12 11 9 7 7 7 7 7 8 9 9 9 9
11 11 12 12 13 14 16 17 16 16 16 15 14 13 12 12 12 12 13 14 14 14 14 14 14 13 14 14 14 13 13 13 12 12 12 11 9 7 6 6 6 7 9 10 9 10 10
11 11 11 12 12 14 15 16 17 16 16 16 15 14 13 12 11 12 13 13 14 14 14 15 15 15 15 14 12 10 9 9 10 11 12 12 10 7 6 5 5 8 10 11 9 9 10
11 11 11 12 12 13 15 16 17 16 16 17 16 15 14 12 12 12 12 12 13 14 14 15 16 16 16 13 10 7 6 7 7 8 10 11 9 7 5 4 5 8 11 11 9 8 9
11 11 11 12 12 13 14 16 17 16 16 16 16 16 14 13 13 12 12 12 12 13 13 14 15 15 15 12 9 7 7 7 7 7 8 8 7 6 5 4 6 9 11 11 9 9 10
11 11 11 12 12 12 14 15 16 16 16 16 16 16 15 14 13 13 13 13 13 13 13 13 14 14 14 12 10 9 9 9 8 8 8 7 6 6 6 5 7 10 12 11 11 11 12
11 11 11 11 12 12 13 15 16 16 16 16 16 16 15 14 13 13 13 13 13 13 13 13 13 13 13 12 12 11 10 10 9 8 8 8 7 7 7 7 9 11 12 12 12 13 13